This is the latest recevied weather packets stored in our database for station/object OE6PLD-13. If no packets are shown the sender has not sent any weather packets the latest 10 day(s).
| Time | Temp. | Humidity | Pressure | Rain* | Wind** | Luminosity | Snow |
|---|---|---|---|---|---|---|---|
| 1778174034 | 13.33° C | 76% | 1014.7 hPa | 0.76 mm | - | 1 W/m² | - |
| 1778173850 | 13.33° C | 75% | 1014.7 hPa | 0.76 mm | - | 1 W/m² | - |
| 1778173667 | 13.89° C | 74% | 1014.5 hPa | 0.76 mm | - | 2 W/m² | - |
| 1778173484 | 13.89° C | 72% | 1014.8 hPa | 0.76 mm | - | 2 W/m² | - |
| 1778173300 | 15° C | 69% | 1014.7 hPa | 0.76 mm | - | 0 W/m² | - |
| 1778173116 | 15° C | 67% | 1014.6 hPa | 0.76 mm | - | 0 W/m² | - |
| 1778172933 | 15.56° C | 64% | 1014.7 hPa | 0.76 mm | - | 0 W/m² | - |
| 1778172749 | 15.56° C | 63% | 1014.6 hPa | 0.76 mm | - | 0 W/m² | - |
| 1778172566 | 15.56° C | 61% | 1014.6 hPa | 0.76 mm | - | 1 W/m² | - |
| 1778172383 | 16.11° C | 61% | 1014.4 hPa | 0.76 mm | - | 2 W/m² | - |
| 1778172199 | 16.11° C | 61% | 1014.2 hPa | 0.76 mm | - | 0 W/m² | - |
| 1778172016 | 16.11° C | 61% | 1014 hPa | 0.76 mm | - | 0 W/m² | - |
| 1778171833 | 16.67° C | 60% | 1013.9 hPa | 0.76 mm | - | 0 W/m² | - |
| 1778171649 | 17.22° C | 59% | 1013.7 hPa | 0.76 mm | - | 0 W/m² | - |
| 1778171466 | 18.33° C | 59% | 1013.8 hPa | 0.76 mm | - | 0 W/m² | - |
| 1778171282 | 20° C | 60% | 1013.4 hPa | 0.76 mm | - | 3 W/m² | - |
| 1778171099 | 20° C | 61% | 1013 hPa | 0.76 mm | - | 15 W/m² | - |
| 1778170916 | 20° C | 61% | 1012.8 hPa | 0.76 mm | - | 33 W/m² | - |
| 1778170732 | 20° C | 61% | 1012.7 hPa | 0.76 mm | - | 57 W/m² | - |
| 1778170549 | 20° C | 61% | 1012.8 hPa | 0.76 mm | - | 69 W/m² | - |
| 1778170364 | 20.56° C | 61% | 1012.4 hPa | 0.76 mm | - | 73 W/m² | - |
| 1778170181 | 20.56° C | 60% | 1012.5 hPa | 0.76 mm | - | 73 W/m² | - |
| 1778169996 | 20.56° C | 60% | 1012.5 hPa | 0.76 mm | - | 74 W/m² | - |
| 1778169812 | 20.56° C | 60% | 1012.2 hPa | 0.76 mm | - | 69 W/m² | - |
| 1778169629 | 20.56° C | 60% | 1012.3 hPa | 0.76 mm | - | 67 W/m² | - |
* Rain latest hour (hover to see other rain measurements)
** Current wind speed in m/s (hover to see current wind gust speed)